Location: Sternwarte_Laufen
(47.9344°N, 12.9346°E)
Time: 16:55:29
(UTC+02:00)

BlueWalker 3 - Visible Passes

Search period start: 10 May 2026 00:00
Search period end: 20 May 2026 00:00
Orbit: 448 x 458 km, 53.2° (Epoch: 10 May)

Date Brightness Start Highest point End Pass type
(mag) Time Alt. Az. Time Alt. Az. Time Alt. Az.
10 May 2.2 03:06:29 44° SE 03:06:30 44° SE 03:09:54 10° ENE visible
10 May 2.5 04:40:29 10° W 04:43:55 47° NNW 04:47:22 10° ENE visible
11 May 3.1 02:30:49 28° ESE 02:30:49 28° ESE 02:33:04 10° ENE visible
11 May 2.2 04:04:26 16° W 04:07:07 55° NNW 04:10:37 10° ENE visible
12 May 4.0 01:55:06 16° E 01:55:06 16° E 01:56:10 10° E visible
12 May 2.0 03:28:44 30° W 03:30:19 65° NNW 03:33:50 10° ENE visible
13 May 1.7 02:52:58 60° W 02:53:32 78° NNW 02:57:05 10° ENE visible
13 May 3.2 04:27:58 10° WNW 04:31:16 34° N 04:34:34 10° ENE visible
14 May 1.9 02:17:09 67° ENE 02:17:09 67° ENE 02:20:17 10° ENE visible
14 May 3.1 03:51:05 10° WNW 03:54:24 36° N 03:57:43 10° ENE visible
15 May 2.9 01:41:17 35° ENE 01:41:17 35° ENE 01:43:29 10° ENE visible
15 May 3.0 03:14:53 15° WNW 03:17:32 39° NNW 03:20:54 10° ENE visible
15 May 3.3 04:52:08 10° WNW 04:55:28 36° N 04:58:47 10° ENE visible
16 May 3.7 01:05:20 21° ENE 01:05:20 21° ENE 01:06:39 10° ENE visible
16 May 2.8 02:38:56 24° WNW 02:40:40 43° NNW 02:44:05 10° ENE visible
16 May 3.4 04:15:18 10° WNW 04:18:35 34° N 04:21:52 10° ENE visible
17 May 4.2 00:29:18 13° ENE 00:29:18 13° ENE 00:29:47 10° ENE visible
17 May 2.5 02:02:54 38° WNW 02:03:48 49° NNW 02:07:16 10° ENE visible
17 May 3.4 03:38:25 10° WNW 03:41:42 33° N 03:44:58 10° ENE visible
18 May 2.2 01:26:43 55° NW 01:26:57 57° NNW 01:30:27 10° ENE visible
18 May 3.4 03:01:32 10° WNW 03:04:47 33° N 03:08:03 10° ENE visible
18 May 2.5 04:39:09 10° WNW 04:42:39 54° NNE 04:46:08 10° E visible
19 May 2.0 00:50:18 65° N 00:50:18 65° N 00:53:38 10° ENE visible
19 May 3.4 02:24:36 10° WNW 02:27:53 34° N 02:31:09 10° ENE visible
19 May 2.8 04:02:20 10° WNW 04:05:47 47° NNE 04:09:13 10° E visible
